LiveATC.Net - Listen to live air traffic control over the Internet!


ICAO: CZBB  IATA: YDT   Airport: Boundary Bay Airport
City: Boundary Bay   State/Province: British Columbia
Country: Canada   Continent: North America
CYVR METAR Weather: CYVR 251700Z 13010KT 6SM -RA BR BKN008 OVC052 13/12 A3004 RMK SF7SC1 SLP175
CZBB Flight Activity (FlightAware)

CZBB Tower (Inner)
Feed Status: UP   Listeners: 1
Listen in your browser - HTML5 player (in browser, HTML5)
Click here to listen with your own player (launches your MP3 player)
Archive Access: CZBB Tower (Inner)
FacilityFrequency
Boundary Bay Tower (Inner)118.100

NOTICE

Unauthorized use prohibited. See LiveATC.net Terms of Service


Airport/ARTCC Code
Frequency Search
(e.g., 124.400, 128.75)
Site-wide search
 


Browse Feeds
Top 50 Feeds
Coverage Map
Bad Weather Areas

LiveATC FAQ
Offer LiveATC feed
Contact LiveATC.net
Press Inquiries

LiveATC on iPhone
LiveATC on Android

Windows Phone
Windows 8/10

LiveATC Mobile
(Mobile browser)

ATC Audio Archives
Interesting Recordings

LiveATC Forums


Home Page
About LiveATC.net
Make a Donation
Terms of Use
Privacy Policy

Canadian Air Freqs

AIRMETs/SIGMETs

FAA Airport Status
Nat'l Airspace Status
Arrival Demand Charts


Server Software By:
Icecast.org
Liquidsoap